{"data":{"norad_id":62082,"epoch":"2026-09-22T22:33:40.001184Z","epoch_age_seconds":96653,"freshness":"FRESH","line1":"1 62082U 24219B   26265.94004631  .00000590  00000+0  10035-3 0  9999","line2":"2 62082  97.9272  62.3353 0004145 333.6298  26.4698 14.72592738 98141","mean_motion":14.72592738,"eccentricity":0.0004145,"inclination_deg":97.9272,"raan_deg":62.3353,"arg_perigee_deg":333.6298,"mean_anomaly_deg":26.4698,"bstar":0.00010035,"rev_number":9814,"period_min":97.786710666232,"perigee_km":649.88888922362,"apogee_km":655.71753866098,"semimajor_km":7030.9402139423,"source":"CELESTRAK","updated_at":"2026-09-23T09:00:21.210619Z"}}